Weather History for KAKO - June, 2013

Change the Weather History Date:

Monday, June 17, 2013

  Actual Average Record
Temperature  
Mean Temperature 67 °F 68 °F  
Max Temperature 83 °F 82 °F 99 °F (1939)
Min Temperature 50 °F 54 °F 40 °F (1945)
Degree Days  
Heating Degree Days 0    
Month to date heating degree days 25  
Cooling Degree Days 2    
Month to date cooling degree days 78  
Growing Degree Days 16 (Base 50)    
Moisture  
Dew Point 52 °F    
Average Humidity 65    
Maximum Humidity 100    
Minimum Humidity 30    
Precipitation  
Precipitation 0.10 in 0.08 in 1.17 in (1965)
Month to date precipitation 0.44 1.57  
Year to date precipitation 4.33 7.75  
Sea Level Pressure  
Sea Level Pressure 30.02 in    
Wind  
Wind Speed 12 mph (ESE)    
Max Wind Speed 32 mph    
Max Gust Speed 40 mph    
Visibility 10 miles    
Events Rain , Thunderstorm    
T = Trace of Precipitation, MM = Missing Value Source: NWS Daily Summary

Daily Weather History Graph

Daily Weather History Graph

Search for Another Location

Airport or City:

Trip Planner

Search our weather history database for the weather conditions in past years. The results will help you decide how hot, cold, wet, or windy it might be!

Date:

Astronomy

Jun. 17, 2013 Rise Set
Actual Time 5:23 AM MDT 8:24 PM MDT
Civil Twilight 4:50 AM MDT 8:57 PM MDT
Nautical Twilight 4:08 AM MDT 9:39 PM MDT
Astronomical Twilight 3:19 AM MDT 10:28 PM MDT
Moon 2:05 PM MDT (6/17) 1:00 AM MDT (6/17)
Length of Visible Light 16h 07m
Length of Day
15h 01m
First Quarter, 61% of the Moon is Illuminated
Jun 17
First Quarter
Jun 23
Full
Jun 29
Last Quarter
Jul 8
New
Jul 15
First Quarter

Hourly Weather History & Observations

Time (MDT) Temp. Heat Index Dew Point Humidity Pressure Visibility Wind Dir Wind Speed Gust Speed Precip Events Conditions
12:53 AM 55.0 °F - 48.9 °F 80% 29.95 in 10.0 mi ESE 9.2 mph - N/A   Clear
1:53 AM 52.0 °F - 48.9 °F 89% 29.95 in 10.0 mi East 8.1 mph - N/A   Clear
2:53 AM 52.0 °F - 50.0 °F 93% 29.96 in 10.0 mi SE 4.6 mph - N/A   Clear
3:53 AM 52.0 °F - 51.1 °F 97% 29.99 in 10.0 mi East 5.8 mph - N/A   Clear
4:53 AM 51.1 °F - 50.0 °F 96% 29.99 in 9.0 mi SSE 6.9 mph - N/A   Clear
5:53 AM 52.0 °F - 51.1 °F 97% 30.00 in 6.0 mi South 8.1 mph - N/A   Clear
6:53 AM 55.9 °F - 52.0 °F 87% 30.01 in 10.0 mi South 6.9 mph - N/A   Clear
7:53 AM 63.0 °F - 50.0 °F 63% 30.01 in 10.0 mi South 6.9 mph - N/A   Clear
8:53 AM 69.1 °F - 48.0 °F 47% 30.03 in 10.0 mi North 6.9 mph - N/A   Clear
9:53 AM 72.0 °F - 46.9 °F 41% 30.04 in 10.0 mi ENE 6.9 mph - N/A   Clear
10:53 AM 75.9 °F - 46.9 °F 36% 30.02 in 10.0 mi ESE 10.4 mph - N/A   Clear
11:53 AM 79.0 °F - 46.9 °F 32% 30.01 in 10.0 mi SE 11.5 mph 21.9 mph N/A   Clear
12:53 PM 81.0 °F - 46.9 °F 30% 30.00 in 10.0 mi East 11.5 mph 18.4 mph N/A   Clear
1:53 PM 82.0 °F 81.3 °F 54.0 °F 38% 29.98 in 10.0 mi East 20.7 mph 31.1 mph N/A   Partly Cloudy
2:53 PM 82.0 °F 81.2 °F 53.1 °F 37% 29.96 in 10.0 mi East 17.3 mph 31.1 mph N/A   Clear
3:53 PM 78.1 °F - 46.9 °F 33% 29.97 in 10.0 mi SE 17.3 mph 26.5 mph N/A Thunderstorm Scattered Clouds
4:07 PM 75.2 °F - 48.2 °F 38% 30.11 in 10.0 mi SSE 16.1 mph 25.3 mph N/A   Scattered Clouds
4:53 PM 75.0 °F - 55.0 °F 50% 29.96 in 10.0 mi ESE 27.6 mph 33.4 mph N/A   Clear
5:04 PM 77.0 °F - 53.6 °F 44% 30.08 in 10.0 mi ESE 32.2 mph 39.1 mph N/A Thunderstorm Clear
5:19 PM 73.4 °F - 53.6 °F 50% 30.07 in 10.0 mi ESE 28.8 mph 40.3 mph N/A   Clear
5:31 PM 73.4 °F - 53.6 °F 50% 30.08 in 10.0 mi ESE 23.0 mph 34.5 mph N/A Thunderstorm Clear
5:46 PM 69.8 °F - 55.4 °F 60% 30.07 in 10.0 mi East 19.6 mph 28.8 mph N/A   Clear
5:53 PM 70.0 °F - 55.9 °F 61% 29.95 in 10.0 mi ESE 20.7 mph 29.9 mph N/A   Clear
6:02 PM 69.8 °F - 55.4 °F 60% 30.07 in 10.0 mi East 24.2 mph 34.5 mph N/A Thunderstorm Clear
6:43 PM 66.2 °F - 57.2 °F 73% 30.16 in 5.0 mi ENE 13.8 mph - 0.04 in Rain , Thunderstorm Thunderstorms and Rain
6:53 PM 64.0 °F - 59.0 °F 84% 30.05 in 5.0 mi ENE 20.7 mph 26.5 mph 0.08 in Rain , Thunderstorm Light Thunderstorms and Rain
7:18 PM 64.4 °F - 57.2 °F 77% 30.13 in 10.0 mi ENE 24.2 mph 32.2 mph 0.02 in Rain Light Rain
7:53 PM 62.1 °F - 52.0 °F 70% 29.99 in 10.0 mi ESE 17.3 mph 25.3 mph 0.02 in   Clear
8:53 PM 59.0 °F - 50.0 °F 72% 30.02 in 10.0 mi ESE 15.0 mph 25.3 mph N/A   Clear
9:53 PM 57.0 °F - 50.0 °F 77% 30.03 in 10.0 mi SE 13.8 mph - N/A   Clear
10:53 PM 57.9 °F - 50.0 °F 75% 30.02 in 10.0 mi SSE 15.0 mph 23.0 mph N/A   Clear
11:53 PM 60.1 °F - 51.1 °F 72% 30.01 in 10.0 mi South 10.4 mph - N/A   Clear